Flag for Netherlands Weather past 2 weeks in Zoetermeer, Netherlands

Now
61 °F

Fog.


Feels Like: 61 °F
Forecast: 57 / 72 °F
Wind: No wind

Location: Rotterdam Zestienhoven Airport

Current Time: Sep 20, 2014 at 12:04:49 AM

Latest Report: Sep 19, 2014 at 11:25 PM


Visibility: 1 mi

Pressure: 29.92 "Hg

Humidity: 100%

Dew point: 61 °F

Location of ZoetermeerLocation

Historic Weather in Zoetermeer — Graph

°F

Zoetermeer temperature yesterday

Maximum temperature yesterday: 72 °F (at 3:25 PM)
Minimum temperature yesterday: 61 °F (at 1:25 AM)
Average temperature yesterday: 65 °F

Past Weeks' High & Low Weather Summary

 TemperatureHumidityPressure
High79 °F (Sep 18, 1:55 PM)100% (Sep 5, 1:55 AM)30.30 "Hg (Sep 5, 1:55 AM)
Low46 °F (Sep 11, 3:25 AM)51% (Sep 17, 2:55 PM)29.80 "Hg (Sep 18, 6:25 AM)
Average62 °F84%30.03 "Hg
* Reported Sep 4 10:25 PM — Sep 19 10:55 PM, Zoetermeer, Weather by CustomWeather, © 2014

Note: Actual official high and low records may vary slightly from our data, if they occured in-between our weather recording intervals... More about our weather records

Advertising

Zoetermeer weather history for previous 24 hours

 ConditionsComfort  
Time TempWeatherWind HumidityBarometerVisibility
10:55 PM
Sep 19
61 °FFog.1 mph100%29.89 "Hg1 mi
10:25 PM61 °FFog.1 mph100%29.92 "Hg1 mi
9:55 PM63 °FFog.1 mph100%29.89 "Hg1 mi
9:25 PM64 °FFog.2 mph94%29.89 "Hg2 mi
8:55 PM64 °FFog.2 mph94%29.89 "Hg2 mi
8:25 PM66 °FLight rain. Cloudy.3 mph88%29.89 "Hg2 mi
7:55 PM68 °FMild.5 mph83%29.86 "Hg4 mi
7:25 PM70 °FScattered clouds.2 mph78%29.86 "Hg5 mi
6:55 PM70 °FMild.3 mph83%29.86 "Hg5 mi
6:25 PM72 °FPassing clouds.3 mph78%29.86 "Hg4 mi
5:55 PM72 °FMild.3 mph78%29.86 "Hg4 mi
5:25 PM72 °FClear.5 mph78%29.86 "Hg5 mi
4:55 PM72 °FClear.5 mph78%29.86 "Hg5 mi
4:25 PM72 °FClear.3 mph78%29.86 "Hg5 mi
3:55 PM72 °FClear.2 mph78%29.86 "Hg5 mi
3:25 PM72 °FClear.2 mph73%29.86 "Hg5 mi
2:55 PM70 °FOvercast.3 mph78%29.86 "Hg4 mi
2:25 PM68 °FOvercast.3 mph83%29.86 "Hg4 mi
1:55 PM68 °FFog.3 mph83%29.86 "Hg3 mi
1:25 PM66 °FFog.2 mph88%29.86 "Hg3 mi
12:55 PM66 °FFog.2 mph88%29.86 "Hg3 mi
12:25 PM64 °FFog.2 mph94%29.86 "Hg2 mi
11:55 AM64 °FFog.3 mph94%29.86 "Hg2 mi
11:25 AM64 °FFog.5 mph94%29.86 "Hg1 mi
10:55 AM63 °FFog.5 mph100%29.86 "Hg1 mi
10:25 AM63 °FFog.5 mph100%29.86 "Hg1 mi
9:55 AM63 °FFog.3 mph100%29.86 "Hg0 mi
9:25 AM63 °FFog.3 mph100%29.86 "Hg0 mi
8:55 AM63 °FFog.5 mph100%29.83 "Hg0 mi
8:25 AM63 °FFog.3 mph100%29.83 "Hg0 mi
7:55 AM63 °FFog.2 mph100%29.83 "Hg0 mi
7:25 AM63 °FFog.2 mph100%29.83 "Hg1 mi
6:55 AM63 °FFog.2 mph100%29.83 "Hg1 mi
6:25 AM63 °FFog.2 mph100%29.83 "Hg1 mi
5:55 AM63 °FFog.3 mph94%29.80 "Hg1 mi
5:25 AM61 °FFog.5 mph100%29.80 "Hg1 mi
4:55 AM61 °FFog.3 mph94%29.83 "Hg1 mi
4:25 AM61 °FFog.3 mph100%29.83 "Hg1 mi
3:55 AM61 °FFog.5 mph94%29.80 "Hg1 mi
3:25 AM61 °FFog.6 mph100%29.80 "Hg2 mi
2:55 AM61 °FFog.5 mph100%29.80 "Hg2 mi
2:25 AM61 °FFog.2 mph100%29.83 "Hg3 mi
1:55 AM61 °FFog.5 mph94%29.83 "Hg3 mi
1:25 AM61 °FPassing clouds.2 mph94%29.83 "Hg4 mi
12:55 AM63 °FPassing clouds.1 mph94%29.83 "Hg5 mi
12:25 AM64 °FPassing clouds.5 mph88%29.83 "HgN/A
Weather by CustomWeather, © 2014

See weather overviewHow to use our weather pages